User: anonymous   Login
Location: ????????
(55.3155°N, 39.2900°E)
Time: 19:10:16
(UTC+00:00)
Language:

Cosmos 2026 Rocket - Orbit

View from above orbital plane
View from above orbital plane
View from above satellite
View from above satellite

Ground track
Ground track

The orbit data is extracted from the following two-line orbital elements,

1 20046U 89042B   24177.54295551  .00000189  00000-0  17027-3 0  9990
2 20046  82.9359 190.9227 0043437  74.4582 286.1365 13.78443057762616
Epoch (UTC): 25 June 2024 13:01:51
Eccentricity: 0.0043437
inclination: 82.9359°
perigee height: 937 km
apogee height: 1001 km
right ascension of ascending node: 190.9227°
argument of perigee: 74.4582°
revolutions per day: 13.78443057
mean anomaly at epoch: 286.1365°
orbit number at epoch: 76261

The dashed part of the orbit path shows where the satellite is in the earth's shadow,  

DLR